| time (UTC) | temp F | wind direction | speed MPH | gust MPH | rain 1hr in | rain 24hr in | rain mn in | humidity % | barometer mb |
| 20260504193516 | 77 | 345 | 4.0 | 10.0 | 0.00 | 0.00 | 0.00 | 30 | 1006.2 |
| 20260504192807 | 76 | 0 | 6.0 | 7.0 | 0.00 | 0.00 | 0.00 | 31 | 1006.2 |
| 20260504191918 | 75 | 315 | 5.0 | 13.0 | 0.00 | 0.00 | 0.00 | 30 | 1006.3 |
| 20260504190927 | 75 | 338 | 5.0 | 8.0 | 0.00 | 0.00 | 0.00 | 32 | 1006.3 |
| 20260504190017 | 74 | 326 | 6.0 | 14.0 | 0.00 | 0.00 | 0.00 | 32 | 1006.3 |
| 20260504185358 | 73 | 23 | 3.0 | 8.0 | 0.00 | 0.00 | 0.00 | 33 | 1006.4 |
| 20260504184311 | 72 | 270 | 3.0 | 5.0 | 0.00 | 0.00 | 0.00 | 33 | 1006.4 |
| 20260504183408 | 73 | 315 | 4.0 | 5.0 | 0.00 | 0.00 | 0.00 | 33 | 1006.5 |
| 20260504182322 | 73 | 315 | 4.0 | 9.0 | 0.00 | 0.00 | 0.00 | 32 | 1006.6 |
| 20260504181558 | 73 | 305 | 4.0 | 10.0 | 0.00 | 0.00 | 0.00 | 32 | 1006.6 |
| 20260504180914 | 74 | 315 | 4.0 | 5.0 | 0.00 | 0.00 | 0.00 | 32 | 1006.6 |
| 20260504175516 | 74 | 302 | 5.0 | 15.0 | 0.00 | 0.00 | 0.00 | 31 | 1006.7 |
| 20260504174518 | 74 | 332 | 6.0 | 16.0 | 0.00 | 0.00 | 0.00 | 31 | 1006.7 |
| 20260504173552 | 73 | 270 | 4.0 | 9.0 | 0.00 | 0.00 | 0.00 | 33 | 1006.8 |
| 20260504173037 | 72 | 318 | 5.0 | 22.0 | 0.00 | 0.00 | 0.00 | 33 | 1006.9 |
| 20260504172016 | 71 | 330 | 5.0 | 13.0 | 0.00 | 0.00 | 0.00 | 33 | 1007.0 |
| 20260504171316 | 71 | 45 | 3.0 | 3.0 | 0.00 | 0.00 | 0.00 | 34 | 1007.2 |
| 20260504170309 | 71 | 180 | 2.0 | 6.0 | 0.00 | 0.00 | 0.00 | 35 | 1007.3 |
| 20260504150516 | 66 | 333 | 4.0 | 10.0 | 0.00 | 0.00 | 0.00 | 36 | 1008.2 |
| 20260504140833 | 61 | 225 | 3.0 | 2.0 | 0.00 | 0.00 | 0.00 | 40 | 1008.4 |
| 20260504130350 | 59 | 0 | 3.0 | 3.0 | 0.00 | 0.00 | 0.00 | 42 | 1009.0 |
| 20260504110320 | 45 | 225 | 1.0 | 2.0 | 0.00 | 0.00 | 0.00 | 64 | 1008.9 |
| 20260504100517 | 43 | 200 | 1.0 | 4.0 | 0.00 | 0.00 | 0.00 | 63 | 1008.7 |
| 20260504081517 | 44 | 225 | 1.0 | 2.0 | 0.00 | 0.00 | 0.00 | 61 | 1008.9 |
| 20260504080517 | 44 | 180 | 0.0 | 1.0 | 0.00 | 0.00 | 0.00 | 61 | 1009.0 |
| 20260504050017 | 49 | 225 | 1.0 | 1.0 | 0.00 | 0.00 | 0.00 | 54 | 1009.6 |
| 20260504045408 | 49 | 180 | 1.0 | 1.0 | 0.00 | 0.00 | 0.00 | 55 | 1009.7 |
| 20260504044517 | 49 | 272 | 1.0 | 4.0 | 0.00 | 0.00 | 0.00 | 55 | 1009.7 |
| 20260504043820 | 49 | 225 | 1.0 | 3.0 | 0.00 | 0.00 | 0.00 | 55 | 1009.8 |
| 20260504042516 | 49 | 142 | 1.0 | 5.0 | 0.00 | 0.00 | 0.00 | 56 | 1010.0 |
| 20260504041517 | 48 | 321 | 2.0 | 8.0 | 0.00 | 0.00 | 0.00 | 55 | 1010.1 |
| 20260504040516 | 48 | 317 | 1.0 | 3.0 | 0.00 | 0.00 | 0.00 | 54 | 1010.1 |
| 20260504035822 | 47 | 45 | 1.0 | 1.0 | 0.00 | 0.00 | 0.00 | 56 | 1010.1 |
| 20260504035116 | 47 | 174 | 1.0 | 4.0 | 0.00 | 0.00 | 0.00 | 56 | 1010.1 |
| 20260504034309 | 46 | 0.0 | 1.0 | 0.00 | 0.00 | 0.00 | 55 | 1009.9 | |
| 20260504033517 | 46 | 359 | 0.0 | 2.0 | 0.00 | 0.00 | 0.00 | 54 | 1009.8 |
| 20260504032516 | 46 | 169 | 1.0 | 2.0 | 0.00 | 0.00 | 0.00 | 53 | 1009.6 |
| 20260504031937 | 46 | 180 | 1.0 | 2.0 | 0.00 | 0.00 | 0.00 | 53 | 1009.6 |
| 20260504030852 | 45 | 180 | 2.0 | 3.0 | 0.00 | 0.00 | 0.00 | 52 | 1009.6 |
| 20260504030017 | 45 | 205 | 2.0 | 4.0 | 0.00 | 0.00 | 0.00 | 53 | 1009.6 |
| 20260504025016 | 45 | 191 | 2.0 | 3.0 | 0.00 | 0.00 | 0.00 | 53 | 1009.6 |
| 20260504024017 | 45 | 216 | 2.0 | 2.0 | 0.00 | 0.00 | 0.00 | 53 | 1009.6 |
| 20260504023357 | 45 | 180 | 2.0 | 2.0 | 0.00 | 0.00 | 0.00 | 52 | 1009.6 |
| 20260504022517 | 45 | 216 | 2.0 | 2.0 | 0.00 | 0.00 | 0.00 | 53 | 1009.6 |
| 20260504021809 | 45 | 225 | 2.0 | 2.0 | 0.00 | 0.00 | 0.00 | 52 | 1009.6 |
| 20260504021017 | 45 | 217 | 2.0 | 2.0 | 0.00 | 0.00 | 0.00 | 52 | 1009.6 |
| 20260504020307 | 46 | 180 | 1.0 | 2.0 | 0.00 | 0.00 | 0.00 | 50 | 1009.5 |
| 20260504015516 | 46 | 200 | 2.0 | 2.0 | 0.00 | 0.00 | 0.00 | 50 | 1009.5 |
| 20260504014809 | 46 | 225 | 2.0 | 2.0 | 0.00 | 0.00 | 0.00 | 48 | 1009.5 |
| 20260504013812 | 46 | 180 | 2.0 | 2.0 | 0.00 | 0.00 | 0.00 | 49 | 1009.5 |
| 20260504013016 | 47 | 206 | 2.0 | 2.0 | 0.00 | 0.00 | 0.00 | 48 | 1009.4 |
| 20260504012041 | 48 | 180 | 1.0 | 2.0 | 0.00 | 0.00 | 0.00 | 46 | 1009.3 |
| 20260504011517 | 48 | 196 | 1.0 | 2.0 | 0.00 | 0.00 | 0.00 | 45 | 1009.2 |
| 20260504010516 | 49 | 183 | 1.0 | 2.0 | 0.00 | 0.00 | 0.00 | 44 | 1009.1 |
| 20260504005808 | 50 | 270 | 1.0 | 4.0 | 0.00 | 0.00 | 0.00 | 42 | 1009.1 |
| 20260504004516 | 50 | 241 | 1.0 | 7.0 | 0.00 | 0.00 | 0.00 | 42 | 1009.0 |
| 20260504003517 | 50 | 316 | 2.0 | 8.0 | 0.00 | 0.00 | 0.00 | 40 | 1008.9 |
| 20260504002536 | 50 | 275 | 2.0 | 5.0 | 0.00 | 0.00 | 0.00 | 40 | 1008.8 |
| 20260504001537 | 51 | 226 | 1.0 | 4.0 | 0.00 | 0.00 | 0.00 | 39 | 1008.6 |
| 20260504000819 | 52 | 225 | 2.0 | 1.0 | 0.00 | 0.00 | 0.00 | 37 | 1008.6 |
| 20260504000016 | 52 | 309 | 3.0 | 6.0 | 0.00 | 0.00 | 0.00 | 36 | 1008.5 |
| 20260503235356 | 53 | 338 | 3.0 | 9.0 | 0.00 | 0.00 | 0.00 | 34 | 1008.4 |
| 20260503234516 | 54 | 308 | 3.0 | 7.0 | 0.00 | 0.00 | 0.00 | 34 | 1008.3 |
| 20260503233809 | 54 | 270 | 5.0 | 5.0 | 0.00 | 0.00 | 0.00 | 33 | 1008.2 |
| 20260503232517 | 55 | 324 | 7.0 | 14.0 | 0.00 | 0.00 | 0.00 | 31 | 1008.1 |
| 20260503231813 | 56 | 270 | 5.0 | 12.0 | 0.00 | 0.00 | 0.00 | 31 | 1008.0 |
| 20260503231016 | 56 | 336 | 6.0 | 12.0 | 0.00 | 0.00 | 0.00 | 30 | 1007.9 |
| 20260503230309 | 56 | 338 | 7.0 | 14.0 | 0.00 | 0.00 | 0.00 | 29 | 1007.8 |
| 20260503225537 | 56 | 318 | 7.0 | 19.0 | 0.00 | 0.00 | 0.00 | 30 | 1007.8 |
| 20260503224614 | 56 | 180 | 7.0 | 11.0 | 0.00 | 0.00 | 0.00 | 30 | 1007.7 |
| 20260503223517 | 56 | 320 | 8.0 | 17.0 | 0.00 | 0.00 | 0.00 | 29 | 1007.6 |
| 20260503222516 | 56 | 316 | 7.0 | 16.0 | 0.00 | 0.00 | 0.00 | 29 | 1007.6 |
| 20260503221834 | 57 | 315 | 4.0 | 11.0 | 0.00 | 0.00 | 0.00 | 28 | 1007.6 |
| 20260503220515 | 57 | 295 | 3.0 | 16.0 | 0.00 | 0.00 | 0.00 | 28 | 1007.6 |
| 20260503215516 | 57 | 330 | 7.0 | 19.0 | 0.00 | 0.00 | 0.00 | 27 | 1007.6 |
| 20260503214516 | 58 | 320 | 7.0 | 18.0 | 0.00 | 0.00 | 0.00 | 26 | 1007.7 |
| 20260503213809 | 60 | 293 | 4.0 | 10.0 | 0.00 | 0.00 | 0.00 | 25 | 1007.7 |
| 20260503212810 | 60 | 135 | 5.0 | 10.0 | 0.00 | 0.00 | 0.00 | 27 | 1007.7 |
| 20260503211808 | 60 | 0 | 6.0 | 6.0 | 0.00 | 0.00 | 0.00 | 27 | 1007.7 |
| 20260503211016 | 59 | 314 | 7.0 | 20.0 | 0.00 | 0.00 | 0.00 | 26 | 1007.7 |
| 20260503210016 | 60 | 291 | 6.0 | 20.0 | 0.00 | 0.00 | 0.00 | 27 | 1007.7 |
| 20260503205017 | 60 | 307 | 6.0 | 12.0 | 0.00 | 0.00 | 0.00 | 27 | 1007.8 |
| 20260503204407 | 60 | 45 | 6.0 | 8.0 | 0.00 | 0.00 | 0.00 | 28 | 1007.9 |
| 20260503203516 | 60 | 323 | 7.0 | 17.0 | 0.00 | 0.00 | 0.00 | 27 | 1007.9 |
| 20260503202555 | 59 | 45 | 5.0 | 6.0 | 0.00 | 0.00 | 0.00 | 29 | 1008.0 |
| 20260503201821 | 59 | 90 | 5.0 | 10.0 | 0.00 | 0.00 | 0.00 | 29 | 1008.0 |
| 20260503201017 | 58 | 319 | 5.0 | 18.0 | 0.00 | 0.00 | 0.00 | 30 | 1008.0 |
| 20260503200017 | 58 | 304 | 5.0 | 10.0 | 0.00 | 0.00 | 0.00 | 30 | 1008.2 |
| 20260503195329 | 57 | 315 | 4.0 | 5.0 | 0.00 | 0.00 | 0.00 | 32 | 1008.4 |
| 20260503194313 | 58 | 315 | 5.0 | 15.0 | 0.00 | 0.00 | 0.00 | 30 | 1008.5 |